Dewpoint
67 70 69 69 69 70 70 70 70 70 70 69 67 67 67 66 65 66 65 66 65 64 65 66 65 65 64 64 63 63 64 65 64 64 64 64 64 62 64 65 65 67 67
69 69 69 69 70 70 70 70 70 70 69 67 67 67 66 65 65 65 65 65 64 64 64 65 65 64 64 64 64 63 63 63 63 63 64 62 62 62 62 63 61 67 66
69 69 69 70 70 70 70 70 70 69 68 67 67 67 65 65 64 64 64 64 63 63 63 63 63 63 63 62 62 62 62 62 62 62 61 58 64 64 62 62 63 63 67
69 69 69 70 70 69 69 69 69 68 67 67 67 66 65 64 63 63 64 64 63 62 61 61 61 62 62 63 63 63 63 63 62 62 57 57 62 63 61 62 63 64 66
68 69 70 70 69 69 69 69 69 68 68 68 67 65 63 63 63 64 63 62 61 61 61 61 62 62 62 61 61 60 60 60 60 58 58 62 63 60 62 60 62 62 63
68 69 69 69 69 69 69 68 68 68 68 67 66 64 63 63 63 62 62 61 60 60 60 60 61 61 60 60 59 59 58 58 57 54 56 63 61 58 58 57 61 62 62
66 67 67 67 68 68 67 67 67 67 67 65 65 64 63 62 62 62 61 60 59 59 59 58 58 58 58 58 58 58 58 58 55 52 60 62 61 63 63 62 62 61 61
64 65 65 65 65 66 65 65 65 65 64 64 64 64 62 62 62 61 60 59 58 56 56 55 54 55 55 55 55 55 56 57 56 50 54 62 63 63 62 61 62 61 62
61 62 63 63 63 63 62 62 62 63 64 63 63 62 61 61 61 60 59 58 57 56 55 54 53 54 54 55 54 52 54 55 53 50 60 61 62 62 62 62 62 62 63
58 60 60 61 61 60 60 60 61 61 61 61 61 60 60 60 60 60 59 58 57 56 55 54 54 54 54 54 54 54 54 54 51 51 58 60 62 61 61 62 62 62 63
54 56 58 58 58 59 60 61 61 60 60 60 60 60 60 60 59 59 59 57 58 57 56 56 56 56 56 55 55 54 55 52 51 46 53 57 60 59 59 60 61 61 61
53 54 55 56 57 58 58 60 59 60 60 60 60 60 59 59 60 58 59 59 59 58 57 58 58 59 58 56 54 53 51 50 48 44 47 56 58 55 54 55 58 59 60
53 55 56 57 58 57 56 58 59 60 60 60 60 60 60 59 60 60 58 58 58 57 57 56 56 55 55 54 53 52 51 48 44 43 45 52 53 52 49 49 52 54 56
53 54 54 56 58 56 55 57 58 58 59 59 60 57 55 53 53 53 52 51 51 50 52 51 52 49 49 49 50 49 50 47 45 43 44 48 49 50 47 46 47 49 52
53 54 55 55 55 53 54 55 55 56 58 58 56 55 54 53 52 52 53 51 51 51 51 50 49 49 49 49 49 48 48 47 46 44 44 45 48 48 47 46 46 47 49
54 58 59 58 57 56 53 53 54 55 54 56 54 53 53 54 52 53 51 51 50 52 51 50 49 49 49 50 49 49 49 48 47 45 43 43 46 48 47 47 47 47 48
57 60 57 58 57 58 54 52 53 53 53 53 51 53 53 52 51 51 50 48 49 49 47 47 47 47 46 46 46 46 47 48 48 47 45 43 43 48 48 47 48 48 48
59 59 60 57 55 56 58 52 50 47 47 49 50 51 51 51 49 47 45 44 46 44 43 44 43 43 43 44 44 44 45 46 46 46 46 45 44 43 46 49 49 49 50
58 59 60 57 55 57 55 50 50 49 47 47 47 47 48 46 45 43 43 44 43 42 42 43 42 43 42 41 40 40 42 45 46 46 46 46 45 45 44 44 49 49 49
55 58 58 57 57 56 48 46 46 44 45 46 45 44 43 43 41 41 41 41 42 41 41 42 42 42 41 39 40 41 42 44 45 45 45 47 47 45 44 43 43 49 49
44 45 45 44 44 44 45 43 42 42 43 44 44 43 41 39 39 38 38 39 40 39 40 41 42 39 38 42 42 41 42 42 42 42 42 44 44 47 47 47 45 45 46
43 43 42 42 42 42 43 43 43 43 43 43 43 40 39 38 38 36 38 38 39 39 39 40 40 41 41 43 41 41 38 38 40 35 39 38 42 43 41 43 46 47 46
42 42 41 41 42 42 42 42 43 43 42 42 41 39 38 38 37 37 38 40 41 42 42 43 43 41 41 41 40 38 35 33 34 35 33 37 37 39 40 41 42 46 50
42 42 42 42 43 43 42 42 41 41 40 41 39 37 36 38 37 37 40 41 41 42 41 42 42 41 40 39 39 37 37 37 32 30 33 32 35 34 37 38 40 44 47
42 42 42 42 43 43 43 43 42 41 40 40 37 36 35 36 36 39 38 41 41 40 40 40 38 38 39 37 37 36 35 35 35 33 29 31 32 34 36 35 39 43 46
43 43 42 41 42 43 43 42 40 39 38 36 35 34 35 36 37 36 37 41 40 39 39 39 39 38 37 37 37 36 35 34 32 31 31 30 29 31 32 35 38 39 43
Wind_Speed
8 12 18 20 19 19 20 21 21 19 18 18 18 17 16 16 15 15 14 12 12 12 12 12 12 12 12 12 12 12 10 10 10 10 11 7 4 6 6 3 4 5 8
15 14 19 20 19 20 20 20 19 18 18 18 17 16 16 15 15 14 13 12 11 12 11 11 10 11 11 10 10 11 12 12 10 9 8 9 4 7 7 7 5 4 4
18 16 18 20 20 19 19 18 18 18 18 17 16 16 15 14 13 13 12 12 12 12 12 11 11 10 10 10 11 11 11 13 14 13 10 6 9 9 6 3 2 3 3
19 15 16 19 19 19 19 18 18 18 17 16 15 15 14 13 13 12 12 12 12 13 12 11 12 11 12 11 11 11 11 10 12 12 10 6 7 6 6 3 3 2 6
17 15 17 20 19 18 17 17 16 15 15 14 14 13 13 13 12 13 12 12 11 11 10 10 10 10 10 11 11 12 12 13 13 10 8 4 8 7 7 2 2 5 6
16 15 18 19 18 18 18 17 16 15 15 14 13 13 12 13 12 12 11 10 8 8 7 7 7 7 8 9 9 10 11 13 11 10 10 4 10 9 8 4 7 8 9
15 15 16 19 18 17 17 16 15 15 14 13 12 11 13 12 10 10 9 7 6 4 4 5 6 6 8 10 11 13 14 14 11 11 6 2 10 10 11 11 10 7 9
20 15 15 18 18 18 17 16 15 14 13 13 13 12 12 11 10 8 7 5 4 1 3 4 5 7 9 11 12 14 13 13 12 12 6 1 5 7 7 6 7 10 9
18 18 15 15 16 18 18 16 15 14 13 13 12 12 12 10 9 8 7 5 4 1 1 4 5 6 8 10 11 14 13 13 11 9 0 2 3 2 3 4 3 4 5
18 17 17 15 15 15 15 17 16 14 14 13 12 10 9 8 8 8 7 5 4 2 3 6 7 7 7 9 11 13 15 10 12 9 3 5 5 5 4 3 2 3 6
14 17 17 16 14 13 11 13 14 13 13 12 10 10 10 8 7 7 7 6 6 6 8 9 9 9 9 10 11 12 10 8 8 8 4 8 9 8 7 6 4 4 6
19 19 18 17 16 13 10 11 12 10 8 8 8 8 9 8 8 8 8 11 9 9 11 12 12 12 11 9 9 10 8 8 7 8 5 8 8 9 9 8 6 6 7
23 18 18 18 18 17 10 11 8 6 7 7 8 6 7 5 6 9 9 8 7 7 8 9 10 8 9 9 10 10 10 9 9 8 8 7 9 9 11 11 8 8 9
23 21 17 19 18 15 12 14 13 11 10 11 10 10 9 7 6 5 1 2 4 6 7 8 7 8 10 10 10 11 11 11 12 11 11 11 12 12 11 12 11 10 11
24 19 18 14 10 14 15 14 12 12 13 13 10 8 9 6 3 2 3 5 7 9 8 10 12 14 17 18 17 15 16 15 14 14 13 14 16 15 14 14 13 12 12
18 19 17 18 14 9 9 11 11 14 11 11 9 9 9 8 5 3 3 6 8 9 10 10 11 13 15 15 18 17 18 17 16 15 16 17 18 18 17 17 15 14 13
24 24 26 17 4 7 8 4 7 6 7 10 7 3 1 3 5 4 4 6 8 10 12 14 14 14 16 15 15 17 16 17 17 15 14 16 18 19 21 20 18 16 15
28 26 17 17 12 6 2 1 3 5 5 4 5 4 4 6 8 7 7 7 8 10 12 12 12 14 13 14 14 16 16 16 18 19 17 14 15 17 19 23 22 21 18
19 21 15 10 9 8 3 2 6 8 8 6 11 10 11 12 12 11 12 12 13 13 13 11 12 9 15 17 16 15 15 16 17 16 18 19 17 16 17 21 26 24 22
20 19 16 10 4 4 8 10 10 12 16 16 17 17 18 17 19 18 16 17 16 16 16 15 12 13 11 18 16 17 15 16 16 15 17 16 16 15 15 18 17 19 27
24 25 18 19 13 10 7 10 10 14 14 16 16 18 17 16 15 16 14 16 16 15 13 13 8 15 17 14 10 15 12 17 13 14 15 17 17 17 18 19 15 13 11
20 19 18 17 18 15 10 6 6 6 12 14 14 16 15 15 16 16 16 15 14 13 16 15 13 9 5 11 8 12 12 18 7 18 15 15 15 14 17 18 19 18 14
17 14 15 15 14 11 10 7 6 5 5 7 10 9 11 12 14 14 12 11 14 14 14 13 12 11 8 4 10 7 8 9 17 5 21 9 13 12 13 15 18 18 17
13 14 11 10 11 9 9 8 8 7 6 5 7 8 11 12 13 13 14 12 12 10 11 9 9 8 8 6 3 8 2 5 9 21 3 16 13 17 14 13 14 14 15
11 11 14 13 9 10 12 11 12 13 11 8 7 10 10 9 12 13 14 10 7 7 7 8 8 9 6 4 5 4 7 8 6 5 17 7 15 12 11 14 13 11 12
7 8 10 14 10 11 15 12 13 12 9 7 5 6 5 7 9 10 9 5 4 5 6 5 5 5 6 7 8 9 9 8 8 7 11 17 14 10 18 13 9 11 8
Wind_Direction
146 130 112 109 105 102 99 101 104 104 103 99 96 94 89 82 77 71 67 64 65 63 59 53 43 39 40 36 24 18 26 31 28 12 3 357 2 36 29 348 89 111 106
134 124 116 109 107 105 106 106 109 107 104 103 100 93 85 82 78 76 72 66 62 60 57 52 45 40 36 30 23 14 9 8 14 21 358 347 326 99 42 64 86 108 140
122 121 115 115 114 111 111 112 111 107 106 103 99 95 90 85 81 77 74 67 62 58 53 45 42 33 33 21 20 9 1 359 360 356 351 20 87 104 108 81 71 107 166
120 120 119 116 114 115 115 114 112 112 110 107 105 99 96 95 92 84 74 66 58 54 50 42 36 31 29 24 22 12 4 7 10 354 342 348 162 156 156 107 47 259 208
111 118 123 122 118 111 110 110 111 114 112 108 106 105 101 95 91 87 80 72 62 57 52 49 36 30 22 15 9 0 358 1 4 3 2 38 153 171 143 127 332 294 272
118 122 122 117 115 116 113 112 112 110 108 106 108 105 103 98 94 89 83 79 74 69 57 46 35 18 6 359 353 345 348 355 7 360 338 184 171 175 164 238 238 228 223
119 119 124 123 120 118 118 120 118 118 119 118 112 112 110 107 107 109 108 105 93 81 63 35 11 355 350 348 342 339 345 354 360 355 11 179 200 190 198 206 214 217 228
130 131 133 131 129 130 130 130 129 130 131 131 132 134 130 130 131 133 126 121 118 120 46 12 346 340 344 339 337 334 342 355 357 341 317 249 232 203 177 212 201 207 204
143 144 141 139 143 139 134 134 136 142 150 146 149 143 141 149 152 156 151 162 187 205 338 312 317 334 339 335 327 327 332 344 360 346 264 264 265 190 169 167 208 219 228
158 150 149 153 149 143 145 152 156 162 159 156 161 155 149 164 174 180 181 199 218 240 269 281 296 310 318 319 317 322 328 341 347 357 283 256 250 262 244 210 225 265 281
160 159 163 155 153 151 159 169 164 175 169 165 168 168 177 197 205 207 207 237 239 239 257 268 277 287 301 299 300 310 319 327 335 339 299 258 254 256 264 258 237 259 281
169 174 167 161 161 163 171 175 174 182 191 177 186 193 195 211 222 226 229 242 250 245 256 268 281 293 295 294 296 302 299 306 306 307 288 261 262 280 282 273 268 271 286
174 172 173 167 177 169 172 178 186 193 203 215 201 211 197 208 208 224 234 242 263 287 280 293 299 294 292 286 289 280 275 283 283 294 295 241 241 254 276 281 273 262 260
169 172 164 179 177 179 176 184 190 186 207 225 205 177 139 140 149 161 170 304 326 334 325 314 310 305 303 300 284 288 280 266 263 268 271 259 253 257 266 278 283 283 279
170 153 156 137 128 140 147 154 168 188 194 200 185 170 140 151 146 75 12 359 352 353 355 347 339 336 332 326 318 309 295 281 271 258 256 256 247 249 258 262 271 278 278
153 143 141 144 153 132 151 159 153 161 177 175 182 176 164 164 159 134 26 10 10 5 355 344 338 336 332 330 322 318 310 302 290 278 265 262 251 242 242 253 257 260 267
155 152 164 151 141 131 169 134 158 165 155 171 191 211 151 125 114 106 76 25 9 10 15 9 6 2 353 344 335 328 321 318 314 304 287 272 273 254 240 244 246 249 253
151 157 149 153 177 199 192 23 174 151 140 104 213 157 109 87 93 66 45 25 5 9 10 4 354 347 342 337 331 320 317 314 311 312 307 287 269 263 253 245 239 243 243
141 143 138 149 173 196 58 109 86 45 48 92 80 81 63 52 44 40 22 15 5 10 7 359 346 357 343 338 330 320 314 306 305 306 304 302 291 263 255 247 239 237 235
89 97 96 82 116 94 86 85 77 69 49 58 57 62 53 45 46 43 33 24 21 19 8 358 350 345 332 324 320 309 306 305 301 301 309 320 320 311 279 265 258 242 233
85 93 100 90 78 94 74 74 56 66 67 70 64 58 55 48 45 43 36 24 19 14 354 349 334 336 329 340 329 325 315 294 330 359 350 349 5 5 13 2 302 266 266
96 106 98 91 84 84 91 93 92 118 88 85 76 61 54 48 42 36 28 16 7 357 352 347 342 333 329 20 341 316 327 318 7 339 352 345 7 6 2 359 353 338 277
92 101 105 104 102 94 88 85 78 77 71 64 61 63 51 54 46 35 24 21 22 19 16 9 12 11 340 357 31 15 336 317 322 336 323 324 356 1 358 355 348 346 341
98 91 90 96 96 89 79 76 63 59 79 78 72 55 43 49 40 36 42 37 35 26 21 15 25 29 4 11 342 15 8 287 317 312 351 312 344 339 343 337 330 336 347
119 105 100 97 115 103 93 105 112 110 118 110 79 52 42 35 39 39 24 19 34 43 29 34 38 36 27 5 342 319 307 291 275 299 308 311 322 327 324 321 323 340 346
123 105 98 96 88 101 108 110 114 114 110 81 55 39 33 32 47 30 17 50 70 59 49 41 38 5 328 312 305 305 297 281 285 289 294 304 308 313 318 315 323 343 350